Madison, SD

6:50 PM CST on December 15, 2019 (GMT -0600)
Madison Municipal

Weather History for KMDS - October, 2019

Change the Weather History Date:

Monday, October 21, 2019

  Actual Average Record
Temperature  
Mean Temperature 42 °F -  
Max Temperature 46 °F 58 °F 73 °F (2014)
Min Temperature 39 °F 35 °F 26 °F (2018)
Degree Days  
Heating Degree Days 22    
Moisture  
Dew Point 44 °F    
Average Humidity 100    
Maximum Humidity 100    
Minimum Humidity 100    
Precipitation  
Precipitation 1.36 in - - ()
Sea Level Pressure  
Sea Level Pressure 29.45 in    
Wind  
Wind Speed 17 mph ()    
Max Wind Speed 40 mph    
Max Gust Speed 53 mph    
Visibility 9.0 miles    
Events Rain    
Averages and records for this station are not official NWS values.
T = Trace of Precipitation, MM = Missing Value Source: Averaged Metar Reports

Daily Weather History Graph

Daily Weather History Graph

Search for Another Location

Airport or City:

Astronomy

Oct. 21, 2019 Rise Set
Actual Time 7:50 AM CDT 6:34 PM CDT
Civil Twilight 7:20 AM CDT 7:04 PM CDT
Nautical Twilight 6:47 AM CDT 7:37 PM CDT
Astronomical Twilight 6:13 AM CDT 8:11 PM CDT
Moon No Moon Rise 3:16 PM CDT (10/21)
Length of Visible Light 11h 43m
Length of Day
10h 44m
Waning Gibbous, 48% of the Moon is Illuminated
Oct 21
Waning Gibbous
Oct 27
New
Nov 4
First Quarter
Nov 12
Full
Nov 19
Last Quarter

Hourly Weather History & Observations

Time (CDT) Temp. Windchill Dew Point Humidity Pressure Visibility Wind Dir Wind Speed Gust Speed Precip Events Conditions
12:00 AM 46.4 °F 40.4 °F 46.4 °F 100% 29.54 in 10.0 mi SE 13.8 mph 25.3 mph N/A Rain Light Rain
12:15 AM 46.4 °F 39.5 °F 46.4 °F 100% 29.53 in 4.0 mi ESE 17.3 mph 25.3 mph 0.02 in Rain Rain
12:20 AM 46.4 °F 39.5 °F 46.4 °F 100% 29.53 in 6.0 mi ESE 17.3 mph 24.2 mph 0.02 in Rain Light Rain
12:35 AM 46.4 °F 39.8 °F 46.4 °F 100% 29.51 in 10.0 mi ESE 16.1 mph 24.2 mph 0.02 in   Overcast
12:55 AM 46.4 °F 40.4 °F 46.4 °F 100% 29.49 in 10.0 mi ESE 13.8 mph 19.6 mph 0.02 in   Mostly Cloudy
1:00 AM 46.4 °F 40.4 °F 46.4 °F 100% 29.49 in 10.0 mi ESE 13.8 mph 19.6 mph 0.02 in   Mostly Cloudy
1:15 AM 46.4 °F 40.7 °F 46.4 °F 100% 29.48 in 10.0 mi ESE 12.7 mph - N/A   Mostly Cloudy
1:35 AM 46.4 °F 40.4 °F 46.4 °F 100% 29.47 in 10.0 mi ESE 13.8 mph 17.3 mph N/A   Overcast
1:40 AM 46.4 °F 40.4 °F 46.4 °F 100% 29.47 in 10.0 mi ESE 13.8 mph - N/A   Overcast
1:55 AM 46.4 °F 40.1 °F 46.4 °F 100% 29.47 in 10.0 mi SE 15.0 mph 19.6 mph N/A   Overcast
2:15 AM 46.4 °F 40.4 °F 46.4 °F 100% 29.46 in 10.0 mi SE 13.8 mph 19.6 mph N/A   Overcast
2:35 AM 46.4 °F 40.7 °F 46.4 °F 100% 29.46 in 10.0 mi SE 12.7 mph - N/A   Overcast
2:40 AM 46.4 °F 39.8 °F 46.4 °F 100% 29.46 in 10.0 mi SE 16.1 mph - N/A   Overcast
2:55 AM 46.4 °F 40.7 °F 46.4 °F 100% 29.45 in 10.0 mi SE 12.7 mph 16.1 mph N/A   Overcast
3:00 AM 46.4 °F 41.1 °F 46.4 °F 100% 29.45 in 10.0 mi SE 11.5 mph 16.1 mph N/A   Overcast
3:15 AM 46.4 °F 41.5 °F 46.4 °F 100% 29.44 in 10.0 mi SE 10.4 mph - N/A   Overcast
3:20 AM 46.4 °F 41.9 °F 46.4 °F 100% 29.44 in 10.0 mi SE 9.2 mph - N/A   Overcast
3:35 AM 46.4 °F 42.4 °F 46.4 °F 100% 29.44 in 10.0 mi SE 8.1 mph - N/A   Overcast
3:40 AM 46.4 °F 42.4 °F 46.4 °F 100% 29.44 in 10.0 mi SE 8.1 mph - N/A   Overcast
3:55 AM 46.4 °F 41.9 °F 46.4 °F 100% 29.43 in 10.0 mi ESE 9.2 mph - N/A   Overcast
4:00 AM 46.4 °F 41.9 °F 46.4 °F 100% 29.43 in 10.0 mi ESE 9.2 mph - N/A   Overcast
4:15 AM 46.4 °F 41.9 °F 46.4 °F 100% 29.42 in 10.0 mi East 9.2 mph - N/A   Overcast
4:35 AM 46.4 °F 44.3 °F 46.4 °F 100% 29.42 in 10.0 mi East 4.6 mph - N/A   Overcast
4:55 AM 46.4 °F 45.2 °F 46.4 °F 100% 29.42 in 10.0 mi ENE 3.5 mph - N/A   Overcast
5:15 AM 46.4 °F 45.2 °F 46.4 °F 100% 29.43 in 10.0 mi NE 3.5 mph - N/A   Overcast
5:35 AM 46.4 °F 42.9 °F 46.4 °F 100% 29.42 in 10.0 mi ENE 6.9 mph - N/A   Overcast
5:55 AM 46.4 °F 44.3 °F 46.4 °F 100% 29.42 in 10.0 mi NE 4.6 mph - N/A   Overcast
6:15 AM 46.4 °F 43.5 °F 46.4 °F 100% 29.42 in 10.0 mi North 5.8 mph - N/A   Overcast
6:20 AM 46.4 °F 43.5 °F 46.4 °F 100% 29.41 in 10.0 mi North 5.8 mph - N/A   Overcast
6:35 AM 46.4 °F 42.4 °F 46.4 °F 100% 29.41 in 10.0 mi North 8.1 mph - N/A   Overcast
6:40 AM 46.4 °F 42.9 °F 46.4 °F 100% 29.41 in 10.0 mi NNW 6.9 mph - N/A   Overcast
7:00 AM 46.4 °F 41.5 °F 46.4 °F 100% 29.39 in 10.0 mi North 10.4 mph - N/A   Overcast
7:15 AM 46.4 °F 41.5 °F 46.4 °F 100% 29.38 in 10.0 mi North 10.4 mph - N/A   Overcast
7:35 AM 46.4 °F 41.1 °F 46.4 °F 100% 29.37 in 10.0 mi North 11.5 mph - N/A   Overcast
7:40 AM 46.4 °F 41.5 °F 46.4 °F 100% 29.38 in 10.0 mi NNE 10.4 mph 16.1 mph N/A   Overcast
7:55 AM 46.4 °F 41.1 °F 46.4 °F 100% 29.37 in 10.0 mi North 11.5 mph - N/A   Overcast
8:15 AM 46.4 °F 40.7 °F 46.4 °F 100% 29.38 in 10.0 mi North 12.7 mph - N/A   Overcast
8:20 AM 46.4 °F 40.1 °F 46.4 °F 100% 29.38 in 10.0 mi North 15.0 mph 18.4 mph N/A   Overcast
8:35 AM 46.4 °F 40.4 °F 46.4 °F 100% 29.38 in 10.0 mi North 13.8 mph - N/A   Overcast
8:40 AM 46.4 °F 40.7 °F 46.4 °F 100% 29.38 in 10.0 mi North 12.7 mph - N/A   Overcast
8:55 AM 46.4 °F 41.5 °F 46.4 °F 100% 29.37 in 10.0 mi North 10.4 mph - N/A   Overcast
9:15 AM 46.4 °F 41.1 °F 46.4 °F 100% 29.37 in 10.0 mi North 11.5 mph - N/A   Overcast
9:20 AM 46.4 °F 40.7 °F 46.4 °F 100% 29.37 in 10.0 mi North 12.7 mph - N/A   Overcast
9:35 AM 46.4 °F 41.1 °F 46.4 °F 100% 29.37 in 10.0 mi North 11.5 mph - N/A   Overcast
9:40 AM 46.4 °F 40.7 °F 46.4 °F 100% 29.37 in 10.0 mi North 12.7 mph - N/A   Overcast
9:55 AM 46.4 °F 41.1 °F 46.4 °F 100% 29.36 in 10.0 mi North 11.5 mph 17.3 mph N/A   Overcast
10:15 AM 46.4 °F 39.5 °F 46.4 °F 100% 29.35 in 10.0 mi North 17.3 mph - N/A   Overcast
10:35 AM 46.4 °F 40.4 °F 46.4 °F 100% 29.35 in 10.0 mi North 13.8 mph - N/A   Overcast
10:40 AM 46.4 °F 39.5 °F 46.4 °F 100% 29.35 in 10.0 mi North 17.3 mph - N/A   Overcast
10:55 AM 44.6 °F 36.9 °F 44.6 °F 100% 29.35 in 10.0 mi North 18.4 mph 23.0 mph N/A   Overcast
11:15 AM 44.6 °F 38.1 °F 44.6 °F 100% 29.35 in 10.0 mi North 13.8 mph 21.9 mph N/A   Overcast
11:20 AM 44.6 °F 36.9 °F 44.6 °F 100% 29.35 in 10.0 mi North 18.4 mph 23.0 mph N/A   Overcast
11:35 AM 44.6 °F 37.4 °F 44.6 °F 100% 29.34 in 10.0 mi North 16.1 mph 25.3 mph N/A   Overcast
11:40 AM 44.6 °F 37.4 °F 44.6 °F 100% 29.34 in 4.0 mi North 16.1 mph 25.3 mph N/A   Overcast
11:55 AM 44.6 °F 37.4 °F 44.6 °F 100% 29.33 in 1.8 mi North 16.1 mph 21.9 mph 0.02 in   Mostly Cloudy
12:15 PM 44.6 °F 36.4 °F 44.6 °F 100% 29.33 in 2.5 mi North 20.7 mph - 0.01 in   Scattered Clouds
12:35 PM 44.6 °F 36.4 °F 44.6 °F 100% 29.34 in 10.0 mi North 20.7 mph 32.2 mph 0.02 in Rain Light Rain
12:55 PM 42.8 °F 34.0 °F 42.8 °F 100% 29.35 in 5.0 mi North 20.7 mph 32.2 mph 0.03 in   Mostly Cloudy
1:00 PM 44.6 °F 35.3 °F 44.6 °F 100% 29.35 in 8.0 mi North 26.5 mph 34.5 mph 0.04 in   Mostly Cloudy
1:15 PM 41.0 °F 30.5 °F 41.0 °F 100% 29.36 in 10.0 mi North 26.5 mph 36.8 mph 0.01 in   Mostly Cloudy
1:20 PM 41.0 °F 30.2 °F 41.0 °F 100% 29.36 in 10.0 mi North 27.6 mph 36.8 mph 0.02 in   Mostly Cloudy
1:35 PM 41.0 °F 30.0 °F 41.0 °F 100% 29.37 in 10.0 mi North 28.8 mph 36.8 mph 0.06 in   Mostly Cloudy
1:55 PM 41.0 °F 31.1 °F 41.0 °F 100% 29.38 in 5.0 mi North 23.0 mph 40.3 mph 0.14 in   Scattered Clouds
2:15 PM 41.0 °F 31.6 °F 41.0 °F 100% 29.38 in 9.0 mi North 20.7 mph 29.9 mph 0.04 in Rain Light Rain
2:35 PM 41.0 °F 30.7 °F 41.0 °F 100% 29.38 in 6.0 mi NNW 25.3 mph 34.5 mph 0.13 in   Mostly Cloudy
2:40 PM 41.0 °F 30.9 °F 41.0 °F 100% 29.38 in 5.0 mi North 24.2 mph 34.5 mph 0.16 in   Mostly Cloudy
2:55 PM 41.0 °F 31.6 °F 41.0 °F 100% 29.38 in 4.0 mi NNW 20.7 mph 29.9 mph 0.25 in   Scattered Clouds
3:00 PM 41.0 °F 31.4 °F 41.0 °F 100% 29.38 in 5.0 mi NNW 21.9 mph 32.2 mph 0.27 in   Scattered Clouds
3:15 PM 41.0 °F 30.5 °F 41.0 °F 100% 29.39 in 5.0 mi NNW 26.5 mph 35.7 mph 0.06 in   Mostly Cloudy
3:20 PM 41.0 °F 30.0 °F 41.0 °F 100% 29.39 in 8.0 mi NNW 28.8 mph 36.8 mph 0.08 in   Mostly Cloudy
3:35 PM 41.0 °F 30.2 °F 41.0 °F 100% 29.40 in 8.0 mi NNW 27.6 mph 44.9 mph 0.14 in   Mostly Cloudy
3:40 PM 41.0 °F 30.0 °F 41.0 °F 100% 29.41 in 8.0 mi NNW 28.8 mph 44.9 mph 0.16 in   Mostly Cloudy
3:55 PM 41.0 °F 29.3 °F 41.0 °F 100% 29.42 in 5.0 mi NNW 33.4 mph 41.4 mph 0.24 in   Scattered Clouds
4:00 PM 41.0 °F 30.5 °F 41.0 °F 100% 29.42 in 3.0 mi NNW 26.5 mph 41.4 mph 0.28 in   Scattered Clouds
4:15 PM 41.0 °F 30.2 °F 41.0 °F 100% 29.42 in 6.0 mi NNW 27.6 mph 39.1 mph 0.04 in   Scattered Clouds
4:20 PM 41.0 °F 30.7 °F 41.0 °F 100% 29.42 in 3.0 mi North 25.3 mph 39.1 mph 0.08 in   Scattered Clouds
4:35 PM 42.8 °F 33.5 °F 42.8 °F 100% 29.42 in 4.0 mi NNW 23.0 mph 31.1 mph 0.17 in   Mostly Cloudy
4:40 PM 42.8 °F 32.9 °F 42.8 °F 100% 29.42 in 9.0 mi NNW 26.5 mph 41.4 mph 0.19 in   Mostly Cloudy
4:55 PM 42.8 °F 32.3 °F 42.8 °F 100% 29.42 in 10.0 mi NNW 29.9 mph 41.4 mph 0.21 in   Mostly Cloudy
5:00 PM 42.8 °F 32.5 °F 42.8 °F 100% 29.43 in 10.0 mi NNW 28.8 mph 41.4 mph 0.22 in   Mostly Cloudy
5:15 PM 42.8 °F 32.3 °F 42.8 °F 100% 29.44 in 10.0 mi NNW 29.9 mph 42.6 mph 0.02 in   Mostly Cloudy
5:35 PM 42.8 °F 31.3 °F 42.8 °F 100% 29.44 in 10.0 mi NW 36.8 mph 46.0 mph 0.05 in Rain Light Rain
5:40 PM 42.8 °F 31.9 °F 42.8 °F 100% 29.45 in 10.0 mi NNW 32.2 mph 46.0 mph 0.05 in Rain Light Rain
5:55 PM 42.8 °F 31.1 °F 42.8 °F 100% 29.45 in 10.0 mi NNW 38.0 mph 49.5 mph 0.06 in   Mostly Cloudy
6:15 PM 42.8 °F 31.4 °F 42.8 °F 100% 29.47 in 10.0 mi NNW 35.7 mph 50.6 mph 0.01 in   Overcast
6:20 PM 42.8 °F 31.4 °F 42.8 °F 100% 29.47 in 10.0 mi NNW 35.7 mph 47.2 mph 0.02 in   Overcast
6:35 PM 42.8 °F 31.1 °F 42.8 °F 100% 29.48 in 10.0 mi NNW 38.0 mph 46.0 mph 0.03 in   Overcast
6:55 PM 41.0 °F 28.6 °F 41.0 °F 100% 29.50 in 10.0 mi NW 38.0 mph 52.9 mph 0.05 in   Overcast
7:00 PM 41.0 °F 28.6 °F 41.0 °F 100% 29.50 in 10.0 mi NNW 38.0 mph 52.9 mph 0.05 in   Overcast
7:15 PM 41.0 °F 28.6 °F 41.0 °F 100% 29.51 in 10.0 mi NW 38.0 mph 49.5 mph N/A   Overcast
7:20 PM 41.0 °F 29.0 °F 41.0 °F 100% 29.51 in 10.0 mi NW 35.7 mph 50.6 mph N/A   Overcast
7:35 PM 41.0 °F 28.6 °F 41.0 °F 100% 29.52 in 10.0 mi NW 38.0 mph 49.5 mph N/A Rain Light Rain
7:55 PM 41.0 °F 28.3 °F 41.0 °F 100% 29.54 in 10.0 mi NW 40.3 mph 52.9 mph N/A Rain Light Rain
8:15 PM 41.0 °F 29.7 °F 41.0 °F 100% 29.55 in 10.0 mi NW 31.1 mph 47.2 mph N/A Rain Light Rain
8:20 PM 41.0 °F 29.5 °F 41.0 °F 100% 29.55 in 10.0 mi NW 32.2 mph 47.2 mph N/A Rain Light Rain
8:35 PM 41.0 °F 29.3 °F 41.0 °F 100% 29.56 in 10.0 mi NW 33.4 mph 51.8 mph N/A   Overcast
8:55 PM 41.0 °F 29.3 °F 41.0 °F 100% 29.57 in 10.0 mi NW 33.4 mph 49.5 mph 0.01 in Rain Light Rain
9:15 PM 41.0 °F 29.5 °F 41.0 °F 100% 29.58 in 10.0 mi NW 32.2 mph 47.2 mph N/A Rain Light Rain
9:20 PM 41.0 °F 29.7 °F 41.0 °F 100% 29.58 in 10.0 mi NNW 31.1 mph 47.2 mph N/A Rain Light Rain
9:35 PM 39.2 °F 26.8 °F 39.2 °F 100% 29.58 in 10.0 mi NW 33.4 mph 42.6 mph N/A Rain Light Rain
9:55 PM 39.2 °F 26.8 °F 39.2 °F 100% 29.59 in 10.0 mi NW 33.4 mph 43.7 mph N/A   Overcast
10:00 PM 39.2 °F 27.2 °F 39.2 °F 100% 29.60 in 10.0 mi NW 31.1 mph 43.7 mph N/A   Overcast
10:15 PM 39.2 °F 26.5 °F 39.2 °F 100% 29.60 in 10.0 mi NW 35.7 mph 44.9 mph N/A Rain Light Rain
10:20 PM 39.2 °F 26.8 °F 39.2 °F 100% 29.60 in 10.0 mi NW 33.4 mph 44.9 mph N/A Rain Light Rain
10:35 PM 39.2 °F 26.5 °F 39.2 °F 100% 29.61 in 10.0 mi NNW 35.7 mph 47.2 mph N/A Rain Light Rain
10:40 PM 39.2 °F 26.6 °F 39.2 °F 100% 29.61 in 10.0 mi NW 34.5 mph 47.2 mph N/A   Overcast
10:55 PM 39.2 °F 27.4 °F 39.2 °F 100% 29.62 in 10.0 mi NW 29.9 mph 40.3 mph N/A   Overcast
11:15 PM 39.2 °F 27.4 °F 39.2 °F 100% 29.63 in 10.0 mi NW 29.9 mph 42.6 mph N/A   Overcast
11:35 PM 39.2 °F 27.0 °F 39.2 °F 100% 29.63 in 10.0 mi NNW 32.2 mph 46.0 mph N/A   Overcast
11:40 PM 39.2 °F 27.0 °F 39.2 °F 100% 29.64 in 10.0 mi NW 32.2 mph 46.0 mph N/A   Overcast
11:55 PM 39.2 °F 27.2 °F 39.2 °F 100% 29.64 in 10.0 mi NW 31.1 mph 47.2 mph N/A   Overcast